Flag for Hungary Weather past 2 weeks in Szeged, Hungary

Now
55 °F

Passing clouds.


Feels Like: 52 °F
Forecast: 43 / 63 °F
Wind: 10 mph from Northwest

Location: Szeged

Current Time: Sep 23, 2014 at 10:47:34 AM

Latest Report: Sep 23, 2014 at 10:00 AM


Visibility: 25 mi

Pressure: 29.91 "Hg

Humidity: 68%

Dew point: 44 °F

Location of SzegedLocation

Historic Weather in Szeged — Graph

°F

Szeged temperature yesterday

Maximum temperature yesterday: 64 °F (at 3:00 PM)
Minimum temperature yesterday: 52 °F (at 10:00 PM)
Average temperature yesterday: 60 °F

Past Weeks' High & Low Weather Summary

 TemperatureHumidityPressure
High82 °F (Sep 9, 4:00 PM)97% (Sep 9, 7:00 AM)30.16 "Hg (Sep 9, 7:00 AM)
Low48 °F (Sep 23, 3:00 AM)36% (Sep 18, 3:00 PM)29.77 "Hg (Sep 22, 5:00 AM)
Average64 °F82%29.98 "Hg
* Reported Sep 8 9:00 AM — Sep 23 9:00 AM, Szeged, Weather by CustomWeather, © 2014

Note: Actual official high and low records may vary slightly from our data, if they occured in-between our weather recording intervals... More about our weather records

Advertising

Szeged weather history for previous 24 hours

 ConditionsComfort  
Time TempWeatherWind HumidityBarometerVisibility
9:00 AM
Sep 23
51 °FScattered clouds.8 mph75%29.89 "Hg25 mi
8:00 AM50 °FOvercast.7 mph79%29.86 "Hg19 mi
7:00 AM50 °FOvercast.7 mph80%29.84 "Hg19 mi
6:00 AM50 °FOvercast.8 mph80%29.83 "Hg19 mi
5:00 AM51 °FOvercast.7 mph82%29.84 "Hg19 mi
4:00 AM50 °FOvercast.5 mph87%29.83 "Hg19 mi
3:00 AM48 °FPassing clouds.3 mph88%29.84 "Hg16 mi
2:00 AM50 °FClear.5 mph84%29.83 "Hg12 mi
1:00 AM51 °FPassing clouds.5 mph79%29.87 "Hg19 mi
12:00 AM52 °FPassing clouds.6 mph80%29.88 "Hg19 mi
11:00 PM
Sep 22
52 °FPassing clouds.5 mph87%29.88 "Hg19 mi
10:00 PM52 °FClear.3 mph88%29.88 "Hg19 mi
9:00 PM54 °FPassing clouds.3 mph81%29.86 "Hg19 mi
8:00 PM56 °FPassing clouds.3 mph76%29.85 "Hg16 mi
7:00 PM57 °FOvercast.3 mph72%29.84 "Hg19 mi
6:00 PM59 °FOvercast.3 mph66%29.82 "Hg25 mi
5:00 PM61 °FLight rain. Overcast.7 mph60%29.82 "Hg19 mi
4:00 PM63 °FOvercast.8 mph60%29.81 "Hg25 mi
3:00 PM64 °FOvercast.8 mph64%29.80 "Hg22 mi
2:00 PM63 °FOvercast.9 mph60%29.80 "Hg25 mi
1:00 PM64 °FOvercast.8 mph73%29.80 "Hg28 mi
12:00 PM61 °FLight rain. Low clouds.8 mph86%29.80 "Hg19 mi
11:00 AM61 °FDrizzle. Low clouds.3 mph95%29.79 "Hg16 mi
10:00 AM61 °FRain. Low clouds.2 mph96%29.80 "Hg5 mi
Weather by CustomWeather, © 2014

See weather overviewHow to use our weather pages